sat.trackr.live / text

‹ back to catalog

STARLINK-35219

NORAD 66443 · 2025-259X

PAYLOAD ACTIVE UNKNOWN

§ Identity

Operator
Country
US
Launch date
2025-11-11
Launch site
AFETR
Launch vehicle
Mass (kg)
RCS (m²)

Purposes: comms

External: N2YO · Heavens-Above · Gunter

§ Orbital elements

Epoch: 2026-05-24T15:33:15.172992Z

Period
94.27 min
Inclination
42.9988°
Eccentricity
0.0001587
Mean motion
15.27599224 rev/d
Perigee alt
481.9 km
Apogee alt
484.1 km
Semi-major
6,861.1 km
B*
7.1836e-4
RAAN
205.7581°
Arg perigee
274.1668°
Mean anomaly
85.9002°
Rev number
3,099

§ Raw data

STARLINK-352191 66443U 25259X   26144.64809228  .00019570  00000+0  71836-3 0  99912 66443  42.9988 205.7581 0001587 274.1668  85.9002 15.27599224 30999

JSON: /api/v1/satellites/66443 · /tle

For live sub-satellite position, see the globe view (requires WebGL).

§ Visibility from observer

Set your observer location to see the next 7 days of passes ≥ 10°. The values pass through the URL so the page stays shareable.

No JS? Fill the form by hand. The geolocation button needs JavaScript.